Temp
9 10 10 11 12 12 12 12 12 12 13 13 13 13 13 13 13 14 14 14 14 14 14 14 14 14 14 15 15 15 15 15 15 15 15 15 15 15 16 16 16 16 16 16 16 16 16 16 16 16 16 16 16 16 16 15 15 15 15 15 15 16 16 16 16 16 16 16 16 15 15 15 14 14 14 14 14 13 13 13 13 13 13 13 13 13
9 9 10 10 11 11 11 12 12 12 12 12 13 13 13 13 13 13 13 14 14 13 13 13 14 14 14 14 14 14 15 15 15 15 15 15 15 15 15 16 16 16 16 16 15 15 16 16 16 16 16 16 16 16 16 15 15 15 15 15 15 15 15 16 16 16 16 16 16 15 15 15 15 14 14 14 14 14 13 13 13 13 13 13 13 13
8 9 9 9 10 10 11 11 11 12 12 12 12 13 13 13 13 13 13 13 13 13 13 13 14 14 14 14 14 14 14 15 15 15 15 15 15 15 15 15 15 15 15 15 15 15 15 16 16 16 16 16 16 16 16 16 15 15 15 15 15 15 15 15 15 16 16 16 16 16 15 15 15 14 14 14 14 14 14 13 13 13 13 13 13 13
8 8 8 9 9 10 10 10 11 11 12 12 12 12 12 13 13 13 13 13 14 14 14 14 14 14 14 14 14 14 14 14 15 15 15 15 15 15 15 15 15 15 15 15 15 15 15 15 16 16 16 16 16 16 16 16 15 15 15 15 15 15 15 15 15 15 15 15 16 16 15 15 15 14 14 14 14 14 14 14 13 13 13 13 13 13
7 7 8 8 9 9 10 10 10 11 11 12 12 12 12 12 13 13 13 13 13 14 14 14 14 14 14 14 14 14 14 14 14 15 15 15 15 15 14 14 14 14 15 15 15 15 15 15 15 16 16 16 16 16 16 16 16 15 15 15 15 15 15 15 15 15 15 15 15 15 15 15 15 14 14 14 14 14 14 14 13 13 13 13 13 13
7 7 7 8 8 9 9 10 10 10 11 11 12 12 12 12 12 12 13 13 13 13 13 13 14 14 14 14 14 14 14 14 14 14 14 14 14 14 14 14 14 14 15 15 15 15 15 15 15 15 16 16 16 16 16 16 16 16 15 15 15 15 15 15 15 15 15 15 15 15 15 15 15 14 14 14 14 14 14 14 14 13 13 13 13 13
6 7 7 7 8 8 9 9 9 10 10 11 11 11 12 12 12 12 12 13 13 13 13 13 13 13 14 14 14 14 14 14 14 14 14 14 14 14 14 14 14 14 14 15 15 15 15 15 15 15 15 16 16 16 16 16 16 16 16 16 16 16 15 15 15 15 15 15 15 15 15 15 15 14 14 14 14 14 14 14 14 14 13 13 13 13
6 6 6 7 7 8 8 9 9 9 10 10 10 11 11 11 11 12 12 12 12 13 13 13 13 13 13 14 14 14 14 14 14 14 14 14 14 14 14 14 14 14 14 14 15 15 15 15 16 16 15 16 16 16 16 16 16 16 16 16 16 16 16 16 15 15 15 15 15 15 15 15 15 14 14 14 14 14 14 14 14 14 14 13 13 13
5 6 6 6 6 7 7 8 9 9 9 9 10 10 11 11 11 11 11 12 12 12 13 13 13 13 13 13 13 14 14 14 14 14 14 14 14 14 14 14 14 14 14 14 14 14 15 15 15 15 15 15 15 16 16 16 16 16 16 16 16 16 16 16 16 16 15 15 15 15 15 15 15 15 15 14 14 14 14 14 14 14 14 14 14 13
5 5 5 6 6 6 7 7 8 9 9 9 10 10 10 10 11 11 11 11 12 12 12 12 13 13 13 13 13 13 14 14 14 14 14 14 14 14 14 14 14 14 14 14 14 14 14 14 14 15 15 15 15 15 15 15 16 16 16 16 16 16 16 16 16 16 16 16 15 15 15 15 15 15 15 15 14 14 14 14 14 14 14 14 14 14
5 5 5 5 6 6 6 7 7 8 9 9 9 9 10 10 10 10 11 11 11 11 12 12 12 12 13 13 13 13 13 13 14 14 14 14 14 14 14 14 14 14 14 14 14 14 14 14 14 14 14 14 14 15 15 15 15 15 15 16 16 16 16 16 15 15 15 15 15 15 15 15 15 15 15 15 15 15 14 14 14 14 14 14 14 14
4 4 5 5 5 6 6 6 7 7 8 8 8 9 9 9 9 10 10 10 11 11 11 11 12 12 12 13 13 13 13 13 13 14 14 14 14 14 14 14 14 14 14 14 14 14 14 14 14 14 14 14 14 14 14 14 14 15 15 15 15 16 16 16 15 15 15 15 15 15 15 15 15 15 15 15 15 15 15 14 14 14 14 14 14 14
4 4 4 4 5 5 5 6 6 7 7 7 8 8 8 8 8 9 9 10 10 10 11 11 11 11 12 12 12 12 13 13 13 13 13 14 14 14 14 14 14 14 14 14 14 14 14 14 14 14 14 14 14 14 14 14 14 14 14 14 15 15 15 15 15 15 15 15 15 15 15 15 15 15 15 15 15 15 15 15 15 14 14 14 14 14
4 4 4 4 5 5 5 5 6 6 6 7 7 7 7 8 8 8 9 9 10 10 10 10 11 11 11 12 12 12 12 12 13 13 13 13 13 14 14 14 14 14 14 14 14 14 14 14 14 14 14 14 14 14 14 14 14 14 14 14 14 14 15 15 15 16 16 15 15 15 15 15 15 15 15 15 15 15 15 15 15 15 14 14 14 14
4 4 4 4 4 5 5 5 5 6 6 6 6 6 7 7 7 8 8 9 9 9 10 10 11 11 11 12 12 12 12 12 12 12 13 13 13 13 13 14 14 14 14 14 14 14 14 14 14 14 14 14 14 14 14 14 14 14 14 14 14 14 14 14 15 15 15 15 15 15 15 15 15 15 15 15 15 15 15 15 15 15 15 14 14 14
4 4 4 4 4 5 5 5 5 5 5 5 6 6 6 7 7 7 8 8 8 9 9 10 10 11 11 12 12 12 12 12 12 12 12 13 13 13 13 13 13 13 13 13 14 14 14 14 14 14 14 14 14 14 14 14 14 14 14 14 14 14 14 14 14 15 15 15 15 15 15 15 15 15 15 15 15 15 15 15 15 15 15 15 14 14
3 4 4 4 4 4 4 4 4 5 5 5 5 6 6 6 6 6 7 7 8 8 9 10 10 10 11 11 12 11 12 12 12 12 12 12 13 13 13 13 13 13 13 13 13 13 14 14 14 14 14 14 14 14 14 14 14 14 14 14 14 14 14 14 14 14 15 15 15 15 15 15 15 15 15 15 15 15 15 15 15 15 15 15 15 15
3 3 4 4 4 4 4 4 4 4 5 5 5 5 5 5 5 6 6 6 7 8 8 9 10 10 10 11 11 11 11 11 12 12 12 12 12 12 13 13 13 13 13 13 13 13 13 14 14 14 14 15 15 15 15 14 14 14 14 14 14 14 14 14 14 14 14 14 14 14 15 15 15 15 15 15 15 15 15 15 15 15 15 15 15 15
3 3 3 3 4 4 4 4 4 4 5 5 5 5 5 5 5 5 5 6 7 7 8 8 9 9 10 10 10 10 11 11 11 11 11 12 12 12 12 12 12 13 13 13 13 13 13 13 14 14 14 15 15 15 15 15 14 14 14 14 14 14 14 14 14 14 14 14 14 14 14 15 15 15 15 15 15 15 15 15 15 15 15 15 15 15
2 2 2 3 3 3 3 4 4 4 4 4 4 4 4 4 4 5 5 5 6 6 7 7 8 9 9 9 10 10 10 10 10 10 11 11 12 12 12 12 12 12 13 13 13 13 13 13 13 14 14 14 15 15 15 15 14 14 14 14 14 14 14 14 14 14 14 14 14 14 14 15 15 15 15 15 15 15 14 14 14 15 15 15 15 15
2 2 2 2 2 3 3 3 3 3 3 3 3 3 4 4 4 4 5 5 5 5 6 6 7 7 7 7 8 9 10 10 9 9 10 11 11 12 12 12 12 12 12 12 13 13 13 13 13 13 13 14 14 14 14 15 15 14 14 14 14 14 14 14 14 14 14 14 14 14 14 14 15 15 15 15 15 15 14 14 14 14 14 15 15 15
1 1 1 2 2 2 2 2 2 2 3 3 3 3 3 4 4 4 4 4 4 5 5 5 6 6 6 6 8 9 9 9 9 9 9 10 11 11 11 12 12 12 12 12 12 13 13 13 13 13 13 13 14 14 14 14 14 14 14 14 14 14 14 14 14 14 14 14 14 14 14 14 14 14 15 15 15 15 15 15 15 14 14 15 15 15
1 1 1 1 1 1 1 2 2 2 2 2 3 3 3 3 4 4 4 4 4 4 5 5 5 5 6 7 8 9 9 9 9 9 9 9 10 11 11 11 11 12 12 12 12 12 12 12 13 13 13 13 13 13 14 14 14 14 14 14 14 14 14 14 14 14 14 14 14 14 14 14 14 14 14 15 15 15 15 15 15 15 15 15 15 14
2 2 2 1 1 1 1 1 2 2 2 2 2 3 3 3 3 4 4 4 4 4 4 5 5 5 6 7 7 8 9 9 9 9 9 9 10 10 11 11 11 11 12 12 12 12 12 12 12 12 13 13 13 13 13 13 14 14 14 14 14 14 14 14 14 14 14 14 14 14 14 14 14 14 14 14 14 15 15 15 15 15 15 15 15 15
3 3 3 2 2 1 1 1 2 2 2 2 2 2 3 3 3 3 4 4 4 4 4 5 5 5 6 6 7 7 8 8 9 9 9 9 10 10 10 10 11 11 11 11 11 12 12 12 12 12 12 13 13 13 13 13 13 13 14 14 14 14 14 14 14 14 14 14 14 14 14 14 13 13 13 13 14 14 14 15 15 15 15 15 15 14
2 2 2 2 2 1 2 2 2 2 2 2 2 2 3 3 3 3 3 4 4 4 5 5 5 6 6 6 7 7 8 8 9 9 9 9 9 10 10 10 10 10 11 11 11 11 11 12 12 12 12 12 12 13 13 13 13 13 13 14 14 14 14 14 14 14 14 14 14 14 14 14 13 13 13 13 13 14 14 14 14 14 14 14 14 14
2 2 2 2 1 2 2 2 2 2 2 2 2 2 3 3 3 4 4 4 4 4 5 5 5 6 6 7 7 7 8 8 8 9 9 9 9 9 9 10 10 10 10 11 11 11 11 11 12 12 12 12 12 12 12 13 13 13 13 13 13 14 14 14 14 14 14 14 14 14 14 14 13 13 13 13 13 13 13 13 14 14 14 14 13 13
2 2 2 2 2 2 2 2 2 1 2 2 2 2 3 3 3 4 4 4 4 4 4 5 5 6 6 7 7 7 7 7 8 8 8 8 9 9 9 9 9 10 10 10 10 10 11 11 11 11 12 12 12 12 12 12 12 12 13 13 13 13 13 14 14 14 14 14 14 13 13 13 13 13 13 13 13 13 13 13 13 13 13 13 13 13
3 3 3 3 3 3 3 2 2 2 2 2 2 2 2 3 3 3 4 4 4 4 4 5 5 5 6 6 6 6 6 7 7 8 8 8 8 9 9 9 9 9 10 10 10 10 11 11 11 11 11 11 12 12 12 12 12 12 12 12 12 13 13 13 13 13 13 14 13 13 13 13 13 13 13 13 13 13 13 13 13 13 13 13 13 13
2 3 3 3 3 3 3 3 3 3 2 2 2 2 2 2 3 3 3 4 4 4 4 5 5 5 5 5 6 6 7 7 8 8 8 8 8 8 9 9 9 9 9 10 10 10 10 11 11 11 11 11 11 12 12 12 12 12 12 12 12 12 12 12 13 13 13 13 13 13 13 14 14 13 13 13 13 13 13 13 13 13 13 13 13 12
1 2 3 3 4 4 3 3 3 3 3 2 2 2 2 2 2 3 3 4 4 4 4 4 5 5 5 5 5 6 6 8 8 8 8 7 8 8 8 8 8 9 9 9 8 8 10 11 11 11 11 11 11 11 11 12 12 12 12 12 12 12 12 12 12 12 12 12 13 13 13 14 14 14 13 13 13 13 13 13 13 13 13 13 12 12
0 1 1 2 2 3 3 3 3 3 3 3 2 2 2 2 2 3 3 3 4 4 4 4 4 4 5 5 5 5 6 7 7 7 7 7 7 8 8 8 8 8 8 8 8 8 9 9 10 10 11 11 11 11 11 11 11 11 11 11 12 12 12 12 12 12 12 12 12 12 13 13 13 14 14 13 13 13 13 14 13 13 13 12 12 12
0 0 0 1 1 1 2 2 2 3 3 3 3 3 2 2 2 3 3 3 3 4 4 4 4 4 4 4 5 5 5 6 6 6 6 7 7 7 7 8 8 8 8 8 8 8 8 8 8 10 10 10 11 11 11 11 11 11 11 11 11 11 12 12 12 12 12 12 12 12 12 12 12 13 13 13 14 14 14 14 13 13 12 12 12 11
0 0 0 0 0 0 1 1 1 2 2 2 3 3 3 2 2 2 3 3 3 3 4 4 4 4 4 4 4 5 5 5 5 6 6 6 7 7 7 7 7 7 7 8 8 8 8 7 8 9 9 10 10 10 10 11 11 11 11 11 11 11 11 11 11 11 12 12 12 12 12 12 12 12 12 13 13 13 13 14 13 13 12 12 12 12
1 1 0 0 -0 -0 0 0 0 1 1 2 2 2 2 2 2 2 2 3 3 3 3 3 3 4 4 4 4 4 4 5 5 5 5 6 6 6 6 6 7 7 7 7 7 7 7 7 7 8 8 9 9 9 10 10 10 11 11 11 11 11 11 11 11 11 11 11 11 11 11 12 12 12 12 12 12 12 13 13 13 13 13 12 12 12
1 1 1 0 0 -0 -0 -0 0 0 1 1 1 1 2 2 2 2 2 2 3 3 3 3 3 3 3 3 4 4 4 4 5 5 5 5 5 5 6 6 6 6 6 6 7 7 7 7 7 7 7 7 8 8 9 9 9 10 10 10 11 11 11 11 11 11 11 11 11 11 11 11 11 11 11 12 12 12 12 12 12 12 12 12 12 12
1 1 1 0 0 0 -0 -0 -0 0 0 0 0 1 1 2 2 2 2 2 2 3 3 3 3 3 3 4 4 4 4 4 4 4 4 4 5 5 5 5 5 6 6 6 6 6 7 7 7 7 7 7 7 8 9 9 9 9 10 10 10 10 10 11 11 11 10 10 10 10 11 11 11 11 11 11 11 11 12 12 12 12 12 12 12 12
1 1 1 1 0 0 0 0 0 0 0 0 0 0 1 1 1 1 1 2 2 2 2 3 3 3 3 4 4 4 4 4 4 4 4 4 4 4 4 5 5 5 5 5 6 6 6 6 6 6 7 7 7 7 8 8 8 8 9 9 9 10 10 10 10 10 10 10 10 10 10 10 10 11 11 11 11 11 11 11 11 11 11 12 12 12
1 1 1 1 1 1 0 0 0 0 0 0 0 0 0 1 1 1 1 1 1 2 2 2 2 3 3 3 4 4 4 4 4 4 4 4 4 4 4 4 4 4 5 5 5 5 5 6 6 6 6 7 7 7 7 7 7 8 8 8 9 9 9 9 10 10 10 10 10 10 10 10 10 10 10 11 11 11 11 11 11 11 11 11 11 11
1 1 1 1 1 1 1 0 0 0 0 0 0 0 0 0 0 0 0 1 1 1 1 2 2 2 3 3 3 4 4 4 4 4 4 4 4 4 4 4 4 4 4 5 5 5 5 5 5 5 6 6 6 7 6 7 7 7 7 8 8 8 8 9 9 9 9 9 9 9 9 9 10 10 10 10 10 10 10 11 11 11 11 11 10 10
2 1 1 1 1 1 1 1 0 0 0 0 0 0 0 0 0 0 0 1 1 1 1 2 2 2 3 3 3 3 3 4 4 4 4 4 4 4 4 4 4 4 4 4 4 4 5 5 5 5 5 5 5 6 6 6 6 6 6 7 7 7 8 8 8 8 9 9 9 9 9 9 9 9 10 10 10 10 10 10 10 10 10 10 10 10
2 1 1 1 1 1 1 1 1 0 0 0 0 0 0 0 0 0 0 0 0 1 1 2 2 2 2 3 3 3 3 3 3 3 4 4 4 4 4 4 4 4 4 4 4 4 4 4 4 4 4 5 5 5 5 5 5 5 5 6 6 6 7 7 7 8 8 8 9 9 9 9 9 9 9 9 10 10 10 10 10 10 10 10 10 10
2 2 1 1 1 1 1 1 1 1 0 0 0 0 0 0 0 0 0 0 0 1 1 1 2 2 2 2 2 3 3 3 3 3 3 3 4 4 4 4 4 4 4 3 3 3 4 4 4 4 4 4 4 4 4 5 5 5 5 5 5 6 6 7 7 7 8 8 8 9 9 9 9 9 9 9 9 9 10 10 10 10 10 10 10 10
2 1 1 1 1 1 1 1 1 0 0 0 0 0 0 0 0 0 0 0 1 1 1 1 1 1 1 1 1 2 3 3 3 3 3 3 3 4 4 4 4 4 4 3 3 3 3 3 4 4 4 4 4 4 4 4 4 4 4 5 5 5 6 6 6 7 7 8 8 8 8 8 8 8 8 9 9 9 9 9 9 10 10 10 10 10
1 1 1 1 1 1 1 1 1 0 0 0 0 -0 -0 -0 -0 0 0 1 1 1 1 1 1 1 1 1 1 1 2 2 3 3 3 3 3 4 4 4 4 4 4 3 3 3 3 3 3 3 4 4 4 4 4 4 4 4 4 4 5 5 5 5 6 6 7 7 7 7 8 7 8 8 8 8 8 8 9 9 9 9 9 9 9 10
1 1 1 1 1 1 1 1 0 0 0 0 -0 -0 -0 -0 -0 -0 0 0 0 1 1 1 1 1 1 1 1 1 1 1 2 2 2 3 3 3 3 4 4 4 4 3 3 3 3 3 3 3 3 3 3 3 4 4 4 4 4 4 4 5 5 5 5 5 6 6 6 7 7 7 7 7 7 7 7 8 8 8 8 8 9 9 9 9
1 1 1 1 1 1 1 1 0 0 0 -0 -0 -0 -0 -0 -0 -0 0 0 0 0 1 1 1 1 1 1 1 1 1 1 1 2 2 2 3 3 3 3 3 4 3 3 3 3 3 3 3 3 3 3 3 3 4 4 4 4 4 4 4 4 5 5 5 5 5 6 6 6 6 6 7 7 6 6 6 7 7 7 7 8 8 8 8 8
1 1 1 1 1 1 1 1 0 0 0 -0 -0 -0 -0 -0 -0 -0 0 0 0 0 0 0 0 0 0 1 1 1 1 1 1 1 2 2 2 2 3 3 3 3 3 3 3 3 3 3 3 3 3 3 3 4 4 4 4 4 4 4 4 4 4 4 5 5 5 5 5 6 6 6 6 6 6 5 5 5 5 6 6 6 7 7 7 8
1 1 1 1 1 1 1 0 0 0 0 -0 -0 -0 -1 -1 -0 -0 -0 -0 0 0 0 0 0 0 0 0 0 0 1 1 1 1 1 1 2 2 2 2 2 2 3 2 2 2 2 3 3 3 3 3 3 4 4 4 4 4 4 4 4 4 4 4 4 4 5 5 5 5 6 6 6 6 6 5 5 4 4 4 5 5 6 6 6 7
0 1 1 1 1 1 1 0 0 0 0 -0 -0 -0 -1 -1 -0 -0 -0 -0 -0 -0 -0 0 0 0 0 1 0 0 0 1 1 1 1 1 1 1 2 2 2 2 2 2 2 2 2 2 2 2 3 3 3 3 4 4 4 4 4 4 4 4 4 4 4 4 4 4 5 5 5 5 5 6 5 5 4 4 3 3 4 4 4 5 5 6
0 0 0 1 1 1 0 0 0 0 0 -0 -0 -0 -1 -1 -1 -0 -0 -0 -0 -0 -0 -0 0 0 0 1 1 1 1 0 0 0 1 1 1 1 1 2 2 2 2 2 2 2 2 2 2 2 2 2 3 3 3 3 3 3 3 4 4 4 4 4 4 4 4 4 4 4 5 5 5 5 5 4 4 3 3 3 3 3 3 4 4 5
Height
751 749 748 746 745 743 742 742 741 740 739 739 738 738 739 739 739 739 740 742 743 745 745 744 743 743 743 743 743 744 745 746 746 747 748 749 750 751 753 754 756 759 761 763 766 768 770 772 774 776 778 779 781 783 785 787 788 790 791 792 794 795 797 798 800 801 803 804 806 808 811 813 815 817 818 819 821 822 823 825 827 828 829 831 832 833
750 749 748 747 745 744 743 742 741 741 740 739 739 739 739 739 739 739 739 741 743 744 744 743 742 742 741 741 741 742 743 744 745 746 747 748 750 751 752 752 754 757 759 761 763 765 768 770 772 773 775 777 779 781 783 785 786 788 789 790 792 793 795 797 798 799 801 803 804 806 808 810 812 814 816 818 819 820 822 823 825 826 828 829 830 831
751 749 748 747 746 745 744 743 742 741 740 740 739 739 739 738 738 738 738 740 741 742 743 742 741 740 740 739 739 740 741 742 743 745 746 748 749 751 752 753 753 755 758 760 762 764 765 767 769 771 773 775 777 778 781 783 784 786 787 788 790 791 793 795 796 798 799 801 802 804 806 808 810 812 814 815 817 818 820 821 823 824 826 828 829 830
752 751 749 748 746 746 745 744 743 742 741 740 739 739 738 738 738 737 738 739 740 741 741 741 740 740 739 739 739 739 740 741 742 743 745 747 748 750 752 753 754 755 756 758 761 763 764 766 768 769 771 773 775 776 778 780 783 784 786 787 788 789 791 793 794 796 797 799 800 802 804 806 808 810 811 813 815 816 818 819 821 823 824 826 827 828
753 752 750 748 747 746 745 744 743 742 741 740 739 738 738 738 737 737 737 738 739 740 740 740 740 739 739 739 739 740 740 741 742 743 745 746 748 750 752 753 755 755 756 757 759 762 763 764 766 768 770 772 773 774 776 778 780 782 783 785 786 788 789 791 792 794 795 797 798 800 802 804 805 807 809 811 812 814 816 817 819 821 822 824 825 826
753 752 751 749 748 747 745 744 743 742 741 739 739 738 738 738 737 737 738 738 739 740 740 740 740 739 739 739 740 740 740 741 742 743 745 746 748 749 751 753 754 755 756 757 759 761 762 763 765 767 769 770 772 773 774 776 778 779 781 782 784 785 787 788 790 792 793 795 797 798 800 802 803 805 807 808 810 812 813 815 817 818 820 822 823 824
753 751 750 749 748 747 746 745 744 743 741 740 738 738 738 738 738 738 738 739 739 740 740 740 740 739 739 739 740 740 740 741 742 743 745 746 748 749 751 752 753 754 755 757 759 760 762 763 764 765 767 769 770 771 773 774 775 777 778 780 781 783 784 786 788 789 791 793 794 796 798 799 802 803 805 806 808 809 811 813 814 816 818 819 821 822
753 751 750 749 748 746 745 744 744 743 742 741 739 738 738 738 738 738 739 739 740 740 740 740 739 739 739 739 739 740 740 741 742 743 744 746 747 748 750 751 752 753 755 756 758 759 760 762 763 764 765 767 768 769 771 772 773 775 776 778 779 781 782 784 785 787 789 791 793 794 796 798 799 801 803 804 805 807 809 810 812 814 815 817 818 820
754 752 750 749 748 747 745 744 743 743 742 741 740 739 738 738 738 739 739 739 740 740 740 740 739 739 739 739 739 739 740 740 741 742 743 744 746 747 748 749 750 752 753 754 756 757 758 759 761 762 763 764 766 767 768 770 771 773 774 776 777 778 780 782 783 784 786 788 790 793 794 796 798 799 800 802 803 805 806 808 809 811 813 814 816 817
755 753 751 749 748 748 747 745 743 743 742 742 741 740 740 739 739 738 739 739 739 740 740 739 739 739 738 739 739 739 740 740 741 741 742 743 744 745 746 747 748 749 751 752 753 755 756 757 758 759 760 762 763 765 766 768 769 770 772 773 775 776 778 779 780 782 783 785 788 790 792 793 795 797 798 799 800 802 803 805 807 808 810 811 813 814
755 753 752 750 748 748 747 746 745 743 742 741 740 740 740 740 740 739 739 738 739 739 739 739 739 739 739 739 739 739 740 740 740 740 741 742 743 743 744 745 746 747 748 750 751 752 753 755 756 757 758 759 761 762 763 765 767 768 770 771 773 774 776 777 778 780 781 783 784 786 788 790 792 793 795 796 798 799 801 803 804 806 807 808 810 812
756 754 752 751 749 748 747 746 745 744 743 741 740 740 740 740 741 740 740 739 738 738 739 739 739 739 739 739 739 739 739 740 740 740 740 740 741 742 743 743 744 745 746 747 748 749 751 752 754 755 756 758 759 760 761 763 765 767 768 769 770 772 773 774 776 777 779 780 782 783 785 787 788 790 792 793 795 796 798 799 801 803 804 806 807 808
756 755 753 752 750 749 748 747 745 744 744 743 743 743 742 742 741 741 741 740 739 738 738 738 738 738 738 738 739 739 739 739 739 739 739 739 739 740 741 741 742 743 744 745 746 747 748 749 751 752 754 755 756 758 759 761 763 764 766 767 768 769 770 772 773 775 776 778 779 781 783 784 786 787 789 790 792 793 795 796 798 800 802 803 804 805
757 755 754 752 751 750 749 748 747 746 746 746 746 745 744 743 743 742 741 740 739 738 738 738 738 737 737 738 738 738 738 738 739 739 738 738 738 738 739 739 740 740 741 742 743 743 745 747 748 749 750 752 753 755 756 758 760 761 763 764 765 766 768 768 770 772 773 775 777 778 780 781 783 784 786 788 789 791 792 793 795 797 799 800 801 803
757 756 755 753 752 751 750 749 749 748 748 747 747 746 745 744 743 743 742 741 739 738 738 738 737 737 736 737 737 737 738 738 738 738 738 738 738 738 738 738 738 738 739 739 740 741 742 743 745 746 747 748 750 751 753 754 756 758 759 761 762 763 765 766 767 768 770 772 773 775 777 778 780 782 783 785 786 788 789 791 792 794 796 797 798 800
758 757 756 754 753 752 751 750 750 749 748 748 747 746 746 745 744 743 743 742 741 739 738 738 737 736 736 736 736 737 737 737 737 737 736 736 737 737 738 738 737 737 737 737 738 738 740 741 742 743 744 745 746 748 749 751 753 754 756 758 759 761 762 763 764 766 767 769 770 772 773 775 777 778 780 782 783 785 786 788 789 791 793 794 795 797
758 758 756 755 753 752 751 751 750 749 748 748 747 747 747 746 745 745 744 743 742 741 740 739 738 737 736 736 736 737 737 737 736 736 735 735 735 736 737 737 736 736 735 736 736 736 738 738 739 740 741 742 743 745 746 748 749 751 753 754 756 758 759 760 761 763 764 766 767 768 770 772 773 775 777 778 780 782 783 784 786 788 789 791 792 794
757 757 756 755 754 753 752 751 750 749 749 748 747 747 746 746 746 745 745 744 743 742 741 740 739 738 738 737 737 737 737 737 736 735 734 734 734 734 735 736 735 735 734 734 734 735 735 736 737 737 738 739 741 742 743 745 746 748 749 751 753 754 756 758 759 760 762 763 764 765 767 768 770 772 773 775 777 778 780 781 783 784 786 788 789 790
756 756 756 755 754 753 752 751 751 750 749 748 748 747 746 746 745 745 745 744 744 743 742 741 740 739 738 737 737 737 737 737 736 735 734 733 733 733 734 734 734 734 734 733 733 734 734 734 734 735 736 737 738 740 741 742 743 745 746 747 749 751 753 754 756 758 759 760 762 763 764 766 767 769 770 772 773 775 777 778 779 781 782 784 786 787
754 754 754 754 753 752 752 751 751 750 750 749 748 747 746 745 745 745 744 744 744 743 743 742 740 739 738 737 736 736 736 736 736 735 734 733 732 732 733 733 733 733 733 732 733 733 733 733 733 733 734 735 736 738 739 740 741 742 743 744 746 748 749 751 753 755 756 758 759 761 762 763 765 766 768 769 770 772 774 775 777 778 779 780 782 783
753 752 751 752 753 752 751 750 750 750 750 749 748 747 746 746 745 744 744 744 743 743 742 742 740 739 738 737 736 735 736 736 736 735 734 733 732 732 732 733 733 732 731 731 731 732 732 732 732 732 733 733 734 735 736 738 738 740 741 742 743 745 747 748 750 752 753 755 757 758 759 761 762 763 764 766 768 769 771 773 774 775 776 778 779 780
752 750 749 750 751 750 749 749 748 749 749 749 748 748 746 746 745 744 743 743 743 742 741 741 739 738 738 736 735 734 736 736 736 736 735 733 731 731 731 732 732 731 730 730 730 731 731 731 731 731 731 732 732 733 734 735 736 737 738 739 741 742 744 746 747 749 750 752 754 755 757 758 759 760 762 763 764 766 768 769 771 772 773 775 776 777
750 748 747 748 748 748 748 747 747 747 748 748 748 747 746 745 745 743 743 742 742 741 740 739 738 737 736 735 734 733 734 735 735 735 735 733 731 730 730 731 731 730 729 729 729 729 729 729 729 730 730 730 731 731 732 733 734 735 736 737 738 739 741 743 744 746 748 749 751 752 754 755 756 757 758 760 761 763 764 766 768 769 770 772 773 774
748 747 746 746 746 746 746 746 746 746 746 746 746 746 745 744 744 743 742 741 741 740 739 738 736 735 734 733 733 732 732 733 734 734 734 732 730 729 730 730 730 729 728 728 728 728 728 728 728 728 729 729 729 730 730 731 732 733 733 734 735 737 738 739 741 743 744 746 748 749 751 752 753 754 756 757 758 759 761 763 764 766 767 768 770 771
746 745 744 744 744 744 744 744 744 745 745 745 745 744 744 743 743 742 741 740 740 739 738 737 736 734 733 733 732 731 731 732 732 733 733 732 730 729 729 729 729 728 727 727 727 727 727 727 727 727 728 728 728 728 729 729 730 731 731 732 733 734 735 737 738 739 741 743 744 746 748 749 750 751 752 753 754 756 758 759 761 763 764 765 767 768
744 743 743 742 742 743 743 743 743 743 743 743 743 743 743 742 741 740 739 739 738 738 738 737 735 734 733 732 732 731 731 731 731 732 732 731 729 728 728 728 728 727 726 726 726 726 726 726 726 726 726 727 727 727 728 728 728 729 729 730 731 732 733 734 735 736 737 738 740 742 743 745 746 747 748 749 751 753 754 756 758 759 761 763 764 765
743 742 741 741 740 740 740 740 740 741 741 741 742 742 742 741 741 739 738 737 737 737 737 736 734 733 732 731 731 730 731 731 730 730 730 730 729 727 726 726 726 726 725 724 724 724 724 724 724 724 725 725 726 726 726 727 727 728 728 728 729 729 730 731 732 733 734 735 736 737 739 740 741 743 744 745 747 749 751 753 754 757 758 761 762 763
742 741 740 739 738 738 738 738 738 738 738 739 739 740 740 740 740 738 737 736 736 736 735 735 734 733 732 730 730 729 730 730 730 729 730 729 728 726 725 725 725 724 724 723 723 722 723 723 723 723 723 724 724 725 725 725 726 726 727 727 727 728 728 728 729 730 731 732 733 734 735 736 737 738 740 741 743 745 747 749 751 754 756 758 759 760
740 739 738 737 736 736 735 735 735 735 735 736 737 738 738 738 738 737 735 735 735 735 734 734 733 732 731 730 729 728 728 728 728 728 728 728 726 724 724 724 724 723 723 723 722 721 720 720 721 721 722 722 723 723 723 724 724 724 725 725 726 726 727 727 728 728 729 729 730 731 732 733 734 735 736 738 739 741 743 746 748 751 753 754 755 757
738 738 736 735 734 734 733 733 732 732 733 733 734 735 736 736 736 735 734 734 734 734 733 733 732 731 731 730 729 728 726 726 726 727 727 726 725 724 723 723 723 723 723 723 721 720 719 718 719 719 719 720 721 721 722 722 723 723 723 723 724 724 725 725 726 727 727 728 728 728 729 730 731 732 733 734 736 738 740 742 745 748 749 751 752 753
737 736 734 733 732 732 731 730 730 730 730 731 732 732 733 733 733 733 733 733 733 733 732 732 731 730 730 730 729 728 726 725 725 726 726 726 724 723 723 723 723 723 723 723 722 721 718 717 717 718 718 718 719 719 720 720 721 721 721 722 722 722 723 723 724 724 725 726 726 727 727 728 728 729 730 732 733 735 737 739 741 744 745 747 748 750
735 734 733 732 731 730 729 728 728 728 728 728 728 729 730 730 731 732 732 732 732 731 731 730 730 729 729 729 728 727 725 725 725 726 726 725 724 723 723 723 723 723 723 723 723 722 720 718 717 717 717 718 718 718 718 719 719 719 720 720 720 720 721 721 722 722 723 723 724 725 725 726 726 727 728 729 730 732 734 736 738 740 742 743 745 746
734 733 732 731 730 729 728 727 726 726 726 726 726 726 727 728 728 729 729 729 729 729 729 729 728 728 728 728 727 725 724 724 725 725 725 725 724 723 723 722 722 722 722 722 722 722 721 719 718 717 717 717 717 718 718 718 718 718 718 718 718 718 719 719 720 720 721 721 722 723 723 724 725 725 726 727 728 729 731 733 735 736 738 740 741 743
733 732 731 730 729 728 727 726 725 724 724 724 724 724 724 725 726 726 727 727 727 727 727 727 727 727 726 726 725 723 723 723 724 724 724 724 724 723 722 722 722 722 722 722 721 721 720 719 718 718 717 716 716 716 717 717 717 717 717 717 717 717 718 718 718 719 719 720 720 721 722 722 723 723 724 725 726 728 729 730 732 733 735 737 738 740
731 731 730 729 728 727 726 725 724 723 722 722 722 722 723 723 723 724 724 725 725 725 725 725 725 725 725 724 723 722 721 722 723 723 723 723 723 722 722 721 721 721 722 721 721 720 719 718 718 718 717 716 715 715 715 715 715 715 716 716 716 716 716 717 717 718 718 719 719 719 720 721 721 722 723 723 724 726 727 728 729 731 732 734 735 737
730 729 728 728 727 726 725 724 723 722 721 720 720 721 721 721 721 721 722 722 723 723 723 723 723 723 723 722 722 721 720 720 721 722 722 722 722 722 721 720 720 721 721 720 720 720 719 718 717 717 717 716 715 714 714 714 714 714 714 714 715 715 715 715 716 717 717 718 718 718 719 719 720 720 721 722 723 724 725 726 728 729 730 732 733 734
728 727 726 726 726 725 724 723 722 721 720 720 719 719 719 719 719 719 719 720 720 720 720 720 720 720 720 720 719 719 718 718 719 720 720 721 721 721 720 719 719 720 720 719 719 719 718 718 717 716 716 715 715 714 713 713 713 713 713 713 714 714 714 714 715 715 716 716 717 717 718 719 719 719 720 721 722 723 724 725 726 727 728 730 731 732
726 725 724 724 724 724 723 722 721 720 720 719 719 718 718 718 718 718 718 718 718 718 718 718 718 718 718 718 718 717 717 717 717 718 718 719 719 719 719 718 718 718 718 718 718 718 718 717 716 715 714 714 713 713 713 713 713 713 712 713 713 713 713 713 713 714 714 715 715 716 717 718 718 719 719 720 721 722 723 723 724 726 727 728 730 731
725 724 723 723 722 722 722 721 720 719 719 718 718 718 717 717 716 716 716 716 716 716 716 716 716 716 716 715 715 715 715 715 715 716 716 717 717 717 717 717 717 716 717 717 717 717 717 716 715 714 713 713 713 712 712 712 712 712 712 712 712 712 712 712 713 713 713 713 714 714 715 716 717 718 718 718 719 720 720 721 722 724 725 727 728 729
723 722 721 720 720 720 720 719 718 718 718 718 717 717 717 716 715 715 714 714 714 714 714 714 713 713 713 713 713 713 713 713 714 714 714 715 715 715 715 715 715 715 715 715 716 716 715 715 714 713 713 713 712 712 711 711 711 711 711 711 711 710 711 711 712 712 712 712 713 713 714 715 716 716 717 717 717 718 718 719 720 721 723 724 726 728
721 720 719 718 718 718 718 718 718 717 717 717 716 716 715 715 714 714 713 713 712 712 712 712 712 712 711 711 711 712 712 712 712 712 713 713 713 713 713 713 713 713 713 714 714 714 713 713 713 712 712 712 712 711 711 710 710 711 711 711 710 710 710 710 710 710 711 711 711 712 713 713 714 714 715 715 716 716 716 717 718 719 720 722 723 724
718 717 717 717 717 716 716 716 716 716 716 715 715 714 714 714 713 713 712 712 711 710 710 710 710 710 709 709 709 709 710 710 710 710 711 711 711 711 711 711 712 712 712 712 712 712 712 711 711 711 710 711 711 710 709 709 709 710 710 710 710 710 709 709 708 709 709 710 710 710 711 712 712 713 713 713 714 714 715 716 716 717 718 719 720 721
716 715 715 715 714 714 714 714 714 714 714 713 713 712 712 712 713 712 712 711 710 709 709 709 709 708 708 707 707 707 708 708 708 709 709 709 709 710 710 710 710 710 711 711 710 710 709 709 709 709 709 709 710 709 708 708 708 708 708 709 709 709 708 707 707 708 708 708 708 709 709 710 710 711 712 712 712 713 713 714 714 715 716 717 718 718
714 713 713 713 712 712 713 713 712 712 712 712 711 710 710 711 711 711 710 709 709 708 708 708 708 707 707 706 705 705 706 706 707 707 707 708 708 708 708 708 708 708 709 709 709 708 708 708 708 707 708 708 708 708 708 707 707 707 707 708 708 708 708 707 706 707 707 707 707 708 708 708 709 710 710 710 710 710 711 712 713 713 714 715 715 716
712 712 711 711 710 710 710 710 710 710 710 709 709 708 708 709 709 709 709 708 708 707 707 707 707 706 705 704 704 704 704 704 705 705 705 706 706 706 706 706 707 707 707 707 707 707 707 707 706 706 707 707 707 706 706 706 706 706 706 706 706 706 706 706 706 706 706 706 706 706 707 707 708 708 708 708 708 709 709 710 711 711 712 713 713 714
710 709 709 708 708 708 708 707 708 708 708 707 707 706 706 707 708 708 707 707 706 706 705 706 705 705 704 703 703 703 703 703 703 703 704 704 704 704 705 705 705 705 705 705 706 706 706 706 706 706 705 705 705 705 704 704 704 704 704 705 705 705 705 705 705 705 705 705 705 705 706 706 707 707 707 707 707 707 708 708 709 710 710 711 712 712
708 708 707 706 706 706 705 705 706 706 705 705 704 704 704 705 705 706 706 705 705 704 704 704 703 703 702 702 702 702 702 702 702 702 702 703 703 703 703 703 703 703 704 704 704 704 705 705 705 705 704 704 703 703 702 703 703 703 703 703 703 704 704 703 703 704 704 704 704 704 705 705 706 706 706 706 706 706 707 707 708 708 709 709 710 711
706 706 705 704 704 704 703 703 703 703 703 703 703 703 703 703 703 704 704 703 703 703 703 702 702 701 700 700 700 701 701 701 701 701 701 701 701 702 702 702 702 702 703 703 703 704 704 704 703 703 703 703 702 702 701 701 701 702 702 702 703 703 703 702 703 703 703 703 703 704 704 704 704 704 705 705 706 706 706 706 707 707 708 708 709 709
704 704 703 703 702 702 701 701 701 701 701 701 701 701 700 701 702 702 702 702 702 701 701 700 699 699 699 698 698 699 699 700 700 700 700 700 700 700 701 701 701 701 701 702 703 703 703 703 703 702 702 701 701 700 700 700 700 700 701 701 701 702 702 702 702 702 702 703 703 703 703 703 703 703 704 705 705 706 706 706 706 707 707 708 708 709
702 702 701 701 700 699 699 699 699 699 699 699 699 699 699 699 699 700 700 700 700 699 698 698 698 697 697 696 697 697 698 698 698 698 698 699 699 699 700 700 700 700 701 701 702 702 702 702 702 701 701 700 700 699 699 699 699 700 700 700 700 701 701 701 701 701 702 702 702 702 703 703 703 703 703 704 705 705 706 706 707 707 707 708 708 708
700 699 699 698 698 698 697 697 697 697 697 697 697 697 697 697 697 698 698 698 698 697 697 696 696 695 695 694 695 695 696 696 697 697 697 697 698 698 699 699 699 699 700 700 701 702 702 702 701 700 700 699 699 698 698 698 698 699 699 699 699 700 700 700 701 701 701 701 702 702 702 702 703 703 703 703 704 705 706 707 707 707 707 708 708 708
Wind_Speed
20 22 22 22 22 20 18 17 16 16 15 14 12 12 11 11 10 9 8 8 10 12 14 13 13 17 24 33 40 44 48 48 47 44 43 43 45 46 45 46 48 48 47 47 47 47 46 46 45 44 43 43 43 44 44 45 45 44 43 43 42 43 43 43 43 42 42 41 41 41 41 42 42 42 42 41 41 40 40 39 39 38 38 38 37 37
21 22 22 22 21 20 19 19 18 16 15 13 12 11 10 10 9 9 9 9 11 13 14 14 13 11 12 17 25 33 40 45 46 46 43 43 44 44 44 45 46 46 44 44 45 46 47 47 46 45 44 44 44 43 42 43 44 44 44 42 43 43 44 44 44 44 43 43 43 43 43 43 44 43 43 42 42 41 41 40 39 39 38 38 38 37
20 20 21 21 20 18 18 19 19 17 15 13 11 10 10 9 9 9 9 10 12 14 15 15 14 13 11 11 14 21 29 36 41 43 42 42 42 42 41 41 42 42 39 37 38 40 42 45 46 46 45 45 44 43 41 41 41 42 43 42 42 43 45 45 45 45 45 45 45 45 45 45 45 45 44 43 42 42 41 41 40 40 39 39 38 38
17 18 20 21 20 17 16 18 19 19 16 14 12 10 10 10 10 10 10 11 13 15 16 16 15 14 12 11 10 13 19 26 32 35 35 35 36 37 37 37 39 39 37 34 33 34 36 40 43 45 45 45 44 43 42 41 40 40 41 42 43 44 46 47 47 47 47 47 47 47 47 47 47 47 45 44 43 42 42 41 41 41 40 39 38 38
15 16 19 20 19 17 17 18 19 20 18 16 14 12 11 10 10 10 10 11 13 14 15 15 15 14 13 12 11 10 10 15 20 23 25 27 29 31 34 35 36 36 35 33 32 33 34 36 39 42 44 45 44 43 42 41 40 40 41 42 44 46 47 48 48 47 47 48 49 49 48 48 48 48 46 44 43 42 42 42 42 41 41 40 39 39
15 16 18 18 17 16 16 17 19 20 20 18 16 14 12 11 10 9 9 10 11 12 13 13 14 14 14 14 13 13 12 11 11 14 16 19 22 25 30 33 35 35 33 33 34 35 36 36 37 39 42 44 45 44 43 42 41 40 40 41 43 45 47 48 47 46 46 47 49 49 49 49 48 47 46 45 43 43 42 42 42 42 41 41 40 40
16 17 18 18 18 17 16 16 18 20 21 20 18 16 15 12 11 9 8 8 10 11 12 12 13 13 13 14 14 15 15 15 15 15 16 17 18 20 24 30 34 35 34 34 36 37 39 39 39 40 42 44 45 45 44 43 42 42 41 41 42 43 45 45 45 44 44 45 47 48 49 48 47 47 46 45 44 43 43 42 42 42 42 42 41 41
16 18 18 18 18 18 18 17 18 20 21 20 18 17 15 14 12 10 9 8 9 10 11 12 12 13 13 14 15 16 16 17 18 19 20 20 19 19 20 23 28 32 35 36 38 40 41 42 42 42 43 44 45 46 45 44 43 43 43 43 43 43 43 43 42 42 42 43 44 46 47 47 47 47 46 45 44 44 43 43 43 43 43 43 42 42
15 16 17 16 16 16 17 17 18 20 20 19 17 15 14 14 14 13 11 10 9 9 9 11 12 13 14 14 15 16 17 18 19 20 22 22 22 22 21 21 23 26 30 34 37 40 42 43 43 44 44 45 46 46 46 45 45 44 44 44 44 44 43 43 42 42 41 42 43 45 46 46 47 47 46 45 45 44 44 44 44 44 44 44 43 43
14 15 15 16 16 15 14 15 18 20 19 18 17 15 14 14 14 14 13 11 10 10 9 9 11 12 13 14 16 17 18 19 20 21 22 23 24 24 23 22 22 23 26 29 33 36 40 42 43 44 44 44 45 45 46 46 46 46 46 45 45 45 45 44 44 43 43 42 43 44 45 46 47 46 46 46 45 45 45 44 44 44 45 45 45 45
14 15 14 15 16 16 14 14 16 19 19 19 17 16 16 16 16 15 14 13 12 12 11 10 10 11 13 14 15 16 18 19 21 22 23 24 24 25 25 24 24 24 24 26 28 31 35 38 41 43 45 45 45 45 45 45 46 47 47 47 47 47 46 46 46 45 45 44 45 46 47 47 47 47 46 46 46 46 45 45 45 45 46 46 46 46
13 14 14 14 15 15 15 16 16 18 19 19 17 16 16 18 18 16 14 13 14 14 14 13 12 12 12 13 14 15 16 18 20 22 23 24 25 25 25 25 25 25 25 26 27 29 31 33 35 38 42 44 46 45 45 45 46 46 47 48 48 49 49 48 47 47 46 46 47 48 49 49 49 48 47 47 47 47 47 46 46 46 47 48 48 49
12 13 13 13 13 13 14 15 16 16 16 16 14 13 14 17 19 17 14 13 14 15 15 15 14 14 14 13 14 14 15 16 18 20 22 24 26 26 27 27 27 27 27 27 28 29 30 30 32 33 35 39 42 44 46 46 46 46 47 48 49 50 50 50 49 49 48 48 49 49 50 50 49 48 47 47 48 49 48 47 47 47 49 50 51 51
13 13 13 13 13 13 13 13 13 13 13 14 13 14 15 17 18 18 15 14 15 16 16 16 15 15 15 14 14 14 15 16 16 18 19 21 24 26 27 28 29 29 29 30 30 31 30 30 31 31 32 33 35 38 42 45 47 48 48 49 50 51 52 52 51 51 51 50 50 50 51 50 50 49 48 48 49 49 49 48 47 48 49 51 52 53
12 12 12 11 12 12 12 12 12 12 12 14 15 16 17 17 17 17 15 15 16 17 17 16 16 15 14 13 13 12 13 14 16 17 18 19 21 23 25 27 29 30 31 31 32 32 32 32 32 32 32 32 33 34 37 40 44 47 49 50 51 51 52 52 52 53 53 53 53 52 51 51 50 50 49 49 49 50 50 49 48 49 50 51 52 53
12 11 11 11 11 12 12 12 12 12 13 14 15 15 15 15 16 16 15 15 16 16 15 14 13 12 10 10 9 9 10 11 14 16 18 19 20 20 22 24 26 29 31 32 32 33 33 33 33 33 33 33 33 34 35 37 40 44 47 50 51 51 51 51 52 53 54 55 55 54 53 52 51 51 50 50 50 50 50 50 50 50 51 51 52 53
12 11 11 11 12 13 13 13 13 13 13 14 14 14 14 14 15 16 15 15 14 14 12 11 7 4 5 7 8 7 6 8 11 14 16 18 19 20 20 21 23 26 28 30 32 33 34 34 34 34 34 34 34 34 35 37 39 42 45 48 50 52 52 52 52 51 52 54 55 54 54 53 52 52 52 51 51 51 51 51 51 51 51 52 53 54
13 12 11 11 12 13 14 14 13 13 13 13 14 15 16 16 17 16 15 14 13 12 11 11 8 5 4 6 8 9 8 8 10 12 14 16 18 19 19 21 22 24 26 28 30 32 33 34 34 35 35 34 34 35 36 37 39 41 43 46 49 51 52 52 52 51 50 51 52 52 52 52 52 52 52 52 53 53 52 52 52 52 52 52 53 55
14 13 12 12 12 13 14 13 13 13 13 14 15 17 18 18 18 16 14 12 12 11 11 11 10 9 8 8 10 11 11 10 11 12 13 14 16 17 18 19 21 23 25 26 28 30 31 33 34 35 35 35 35 35 36 37 38 40 42 44 47 49 50 51 51 51 50 50 50 50 50 50 50 51 51 52 53 53 53 53 53 52 52 51 53 55
16 15 13 13 13 13 14 13 12 12 13 15 18 19 18 18 17 15 13 12 12 12 12 11 11 11 11 12 13 13 11 11 13 13 12 13 15 17 17 18 19 21 23 25 26 27 29 31 33 34 35 35 35 35 36 36 38 39 41 43 45 46 48 48 49 49 49 49 50 50 50 49 49 49 50 51 51 51 51 52 52 52 52 52 53 54
18 18 17 14 13 13 14 14 15 15 17 19 20 20 19 17 15 14 13 13 13 13 12 11 11 12 14 16 19 17 13 14 16 16 12 11 13 15 16 17 18 20 22 24 25 25 26 28 30 32 34 35 35 36 36 37 37 38 40 42 44 45 47 47 48 48 49 50 50 51 51 50 50 50 51 51 51 51 51 51 52 52 52 53 53 54
21 22 22 19 17 16 17 19 21 21 22 22 20 19 18 16 15 14 15 14 14 13 13 13 15 18 21 24 24 21 17 17 18 17 12 9 10 13 13 14 15 18 20 22 22 23 24 26 27 29 31 33 34 35 36 37 37 37 38 40 42 44 45 47 48 48 49 50 50 51 52 52 52 52 52 52 51 51 51 51 52 52 53 53 54 54
25 26 26 24 22 21 21 22 23 23 23 22 21 20 19 18 18 18 18 17 17 16 17 18 21 24 26 27 26 23 20 18 18 16 12 7 8 11 11 11 12 15 18 19 20 21 22 24 25 27 28 30 32 34 35 36 37 37 37 38 39 41 43 45 46 47 48 49 49 50 51 52 53 53 53 52 52 51 51 52 52 52 53 54 54 54
27 28 28 26 25 23 22 22 22 22 22 21 21 21 21 21 21 21 21 21 20 20 20 22 22 23 23 24 23 22 20 17 16 14 11 9 10 12 12 11 11 13 16 17 17 18 20 21 23 24 26 27 29 31 33 35 36 37 37 38 38 38 39 41 43 45 45 46 47 48 50 52 54 55 55 54 53 52 52 53 53 54 54 55 55 55
26 27 27 27 25 24 22 21 21 20 20 20 20 21 22 23 23 23 22 21 20 19 18 17 16 16 17 17 17 17 17 15 13 11 10 9 10 13 13 13 12 13 15 16 17 17 18 20 21 23 24 25 26 28 30 32 34 36 37 38 38 38 38 39 41 42 42 42 42 44 46 50 53 56 57 56 55 54 53 54 54 55 56 56 56 55
23 25 26 26 25 24 23 22 21 20 20 20 21 22 22 22 22 22 21 19 17 15 14 12 11 11 13 13 13 13 13 12 11 10 10 9 10 12 13 13 13 14 15 17 17 17 18 19 20 22 23 23 24 25 27 29 31 34 36 37 38 39 39 39 40 41 41 41 40 41 42 45 49 52 55 56 56 56 55 54 54 54 54 54 54 53
21 22 24 24 25 25 24 24 23 23 22 21 21 21 21 21 21 20 18 17 15 13 11 9 8 9 11 11 11 11 11 11 10 10 10 11 11 11 12 12 12 13 15 17 18 18 18 19 21 22 22 23 24 25 25 26 28 30 33 36 38 40 40 41 41 42 42 42 41 41 41 42 44 47 50 53 56 57 56 54 53 52 51 51 51 51
20 22 23 24 25 26 26 25 25 23 22 21 19 18 18 18 18 17 17 17 15 13 11 9 7 6 7 9 11 12 13 13 13 12 12 11 10 10 12 12 12 13 13 14 16 18 18 19 21 22 22 23 24 24 25 26 26 27 29 32 36 38 40 41 42 43 43 43 42 42 41 41 42 44 46 50 54 56 56 55 53 51 50 50 50 50
22 23 24 25 26 26 26 26 25 24 22 20 18 16 16 17 17 18 19 18 16 13 12 11 10 9 9 11 13 15 16 15 14 13 12 10 10 10 12 12 12 12 10 10 12 14 16 18 19 21 22 23 24 24 25 25 25 26 26 28 31 34 37 40 42 43 44 44 44 43 42 42 41 42 45 48 52 54 55 54 53 51 51 50 50 48
24 24 25 26 26 26 26 26 25 24 22 20 17 15 15 16 18 19 20 19 17 14 12 12 12 12 11 10 10 10 11 11 9 8 9 9 8 8 9 10 11 10 7 6 6 7 10 13 15 17 19 20 22 23 24 25 25 25 25 25 26 28 31 35 38 41 43 44 45 45 44 42 41 41 43 46 49 51 51 52 51 51 51 50 49 47
25 25 26 26 26 26 25 25 25 25 23 21 18 16 16 16 17 18 19 19 18 16 14 14 13 12 11 7 4 3 4 7 8 6 6 5 5 6 8 8 8 8 8 5 1 1 4 6 8 9 12 14 17 19 21 23 24 24 24 24 24 25 26 28 31 35 38 41 43 44 44 42 41 40 40 42 44 46 46 47 48 49 48 47 45 44
24 24 25 26 27 27 27 26 26 25 24 23 21 20 19 18 17 18 18 18 18 17 16 16 15 14 12 9 6 4 5 9 10 9 7 5 4 6 7 7 6 7 9 9 6 3 2 3 4 5 7 9 11 13 16 18 20 22 23 23 23 23 23 24 25 28 31 34 37 40 41 42 41 39 38 38 39 39 39 41 43 44 44 43 42 41
23 23 24 25 26 27 27 26 26 25 25 24 24 22 21 20 18 18 17 17 17 17 17 17 16 14 13 13 12 12 13 15 15 14 11 7 5 5 6 7 7 7 9 10 10 8 6 5 6 8 10 11 11 11 12 14 16 18 20 22 23 23 22 22 23 24 25 27 30 33 35 38 39 39 38 37 36 35 34 36 39 42 42 40 39 39
22 22 23 23 24 25 25 26 26 25 25 25 24 23 22 20 18 18 17 17 16 16 16 17 16 15 14 13 13 15 17 17 16 14 12 10 7 7 8 8 8 8 8 8 9 9 7 7 7 9 12 13 13 13 14 14 14 16 17 19 21 22 22 22 22 22 23 24 25 27 29 31 34 36 37 37 37 36 35 34 37 40 42 40 39 38
22 22 22 22 22 22 23 24 24 24 24 24 23 22 21 19 18 17 17 17 17 16 16 16 17 17 16 14 14 14 16 15 14 12 11 10 9 9 9 10 10 9 8 8 8 7 7 7 8 9 10 12 14 15 16 15 15 15 16 17 19 20 21 21 22 22 22 23 23 24 25 26 28 30 33 35 36 37 37 37 38 40 43 42 41 39
21 21 20 20 20 20 21 22 22 22 22 22 22 21 20 19 18 17 17 17 17 17 16 16 16 17 17 18 18 18 19 19 18 16 14 12 11 11 10 11 11 10 10 10 10 9 8 9 10 10 10 10 11 14 15 14 14 14 15 16 17 18 19 20 22 22 23 22 22 22 23 24 25 26 28 30 32 34 36 37 39 41 43 44 44 42
20 20 19 19 19 19 20 20 21 21 21 21 21 20 19 18 17 16 16 16 16 16 16 16 16 16 17 18 19 21 22 22 21 20 18 16 15 15 14 14 14 14 13 12 11 11 10 9 9 10 10 10 10 11 13 14 13 13 14 14 15 16 18 19 20 22 24 23 23 22 22 22 23 24 25 27 28 30 33 35 37 40 42 44 45 45
19 18 19 19 19 19 20 20 21 21 20 20 20 19 18 17 16 15 15 15 15 15 15 15 15 15 15 16 17 19 20 20 20 20 19 18 17 18 18 18 18 18 17 15 14 13 12 9 6 5 7 9 10 12 13 14 14 14 14 14 14 15 16 17 18 20 23 24 24 24 23 23 22 23 23 24 25 27 29 32 34 37 39 42 44 45
19 19 19 20 20 19 19 20 20 20 20 20 19 19 18 17 17 17 16 16 16 16 15 15 15 15 15 15 16 16 17 18 18 18 18 17 18 18 19 19 20 20 19 18 17 16 14 11 8 6 6 8 9 11 12 11 12 12 14 15 15 16 16 16 17 18 20 22 23 24 24 24 23 22 22 23 24 25 27 29 31 33 36 39 41 43
20 21 21 21 20 20 20 20 21 20 20 20 19 18 18 18 18 18 17 17 17 17 16 16 15 15 15 15 15 15 16 16 16 16 16 17 17 17 18 19 20 20 20 19 19 18 17 15 14 13 12 10 9 8 7 8 10 11 11 12 13 14 16 16 16 17 18 19 21 22 23 24 24 23 23 23 24 25 26 27 29 31 33 36 38 39
21 21 22 21 21 21 21 21 21 21 21 20 20 19 19 19 19 19 19 18 18 17 16 16 15 15 15 15 15 15 15 15 15 15 15 16 16 16 17 18 19 20 20 20 20 20 19 18 16 15 15 14 13 12 12 12 12 12 12 12 13 13 14 15 17 17 18 18 19 21 22 23 23 24 24 24 24 25 26 26 27 29 30 33 36 37
21 21 22 21 21 21 22 22 22 22 22 21 21 21 20 19 19 19 19 19 19 17 16 15 14 14 15 15 15 15 15 15 15 15 15 15 15 16 16 17 18 18 19 20 21 21 20 19 18 17 15 14 13 12 13 15 15 15 14 14 14 15 15 16 16 16 16 17 18 19 20 22 23 23 24 24 25 25 26 27 27 28 30 31 34 36
23 22 22 22 22 22 23 23 23 23 23 22 22 22 22 20 19 19 19 19 19 18 16 15 14 14 15 16 16 16 15 15 15 15 15 15 14 15 15 16 17 17 18 19 20 20 20 20 19 18 17 15 14 13 13 14 15 15 16 15 15 13 11 12 13 14 14 15 16 17 19 20 22 22 23 23 23 24 25 26 27 28 29 30 32 34
24 23 23 24 24 24 24 24 24 24 23 22 23 23 23 21 20 19 20 20 20 19 17 16 15 14 15 16 17 17 16 15 15 15 15 14 14 14 14 15 16 16 17 18 19 18 18 18 19 18 17 16 15 14 14 13 14 15 15 15 16 15 13 12 13 14 14 15 15 16 17 18 19 20 20 21 22 23 24 25 26 28 29 30 31 33
24 24 24 24 24 24 23 23 23 23 22 23 23 24 24 22 20 20 20 21 20 19 18 16 14 12 12 13 15 16 16 16 15 15 15 14 13 13 13 13 14 15 16 18 19 19 18 17 16 16 16 15 14 14 14 14 14 15 15 15 16 17 18 18 17 17 16 15 15 15 16 17 18 18 19 19 20 21 22 24 25 26 28 29 30 32
24 25 24 24 23 22 22 23 22 22 22 23 23 23 23 22 21 20 20 20 20 19 18 16 14 11 10 11 12 12 12 13 14 14 14 13 13 12 12 12 12 14 15 16 17 18 19 19 18 15 14 13 13 14 15 15 15 15 15 15 16 16 17 18 19 18 17 16 15 15 15 16 16 17 17 17 18 19 21 22 23 25 27 28 30 32
24 24 24 24 23 22 22 22 22 21 22 22 22 22 21 21 20 20 20 20 20 19 18 16 15 14 13 12 11 11 11 12 13 14 14 14 14 13 12 11 11 12 13 14 14 16 17 19 18 17 14 13 12 13 14 15 15 15 15 15 15 16 17 18 18 18 17 16 16 15 15 15 16 16 15 15 15 16 18 20 22 23 25 27 29 31
22 23 23 23 22 22 22 21 21 21 21 22 22 21 21 21 20 19 20 20 20 19 17 16 15 14 14 14 14 13 12 13 13 14 15 15 14 13 13 12 11 10 11 12 13 14 16 16 16 16 15 13 12 12 13 14 15 14 14 15 15 15 16 17 17 17 16 16 16 16 16 17 17 17 16 14 13 13 14 17 19 21 23 25 27 29
22 22 22 22 22 21 22 21 21 21 21 21 21 21 21 20 20 19 20 20 20 19 17 16 15 14 13 14 14 13 13 13 14 14 15 14 14 13 12 12 10 10 10 11 13 14 15 16 15 15 14 13 13 14 14 14 14 14 14 15 15 15 15 15 16 16 16 16 16 17 18 18 19 19 17 16 14 12 11 13 16 18 20 23 25 27
22 22 22 22 22 21 21 20 20 20 20 20 20 19 19 19 19 20 20 20 20 19 18 16 15 14 13 13 13 13 13 13 13 14 14 14 13 12 12 11 10 10 9 10 12 12 12 13 13 14 14 14 13 13 13 13 13 14 14 15 15 15 14 14 15 15 15 16 17 18 19 19 19 19 18 17 15 13 12 12 13 15 17 20 22 24
21 22 22 22 22 21 20 20 20 20 20 20 19 19 18 18 19 19 20 20 20 19 18 17 16 15 14 13 13 13 13 13 13 14 14 14 13 12 12 12 11 11 10 10 9 8 7 7 6 8 11 13 13 13 12 12 12 12 13 14 15 15 14 14 14 15 15 16 17 18 19 19 18 18 18 17 15 14 12 12 12 13 15 18 19 21
Wind_Direction
344 348 354 359 3 6 5 0 350 340 330 324 320 315 310 306 304 304 305 308 315 319 318 304 278 253 240 234 233 232 232 231 229 226 225 226 224 220 213 210 210 210 210 209 208 208 209 210 212 214 216 218 221 223 225 223 219 214 209 207 208 210 212 213 213 212 212 211 210 210 210 210 211 211 211 211 212 212 212 211 210 209 208 207 208 208
342 345 350 355 359 2 3 3 1 353 343 334 326 320 316 312 307 302 299 300 304 311 317 320 316 300 272 250 241 237 236 235 234 233 232 232 229 223 216 211 209 208 208 208 208 208 208 209 210 213 216 219 222 224 226 225 221 217 214 211 209 209 211 213 214 214 214 213 213 212 212 211 211 211 212 212 213 213 213 213 212 210 209 209 209 209
340 343 346 350 354 356 357 359 1 360 355 345 334 323 316 312 308 305 303 301 302 305 310 316 321 321 310 287 262 247 240 237 235 234 233 232 230 225 219 214 209 207 207 210 212 212 210 209 210 212 215 218 221 224 226 226 222 219 217 215 212 210 211 213 214 215 215 215 215 214 213 213 212 211 212 213 214 214 214 214 213 212 211 210 210 210
337 340 341 345 348 350 351 354 357 359 359 355 348 337 326 318 313 310 307 303 300 301 304 309 313 317 318 311 290 261 243 235 233 232 233 233 230 227 222 218 213 210 210 214 219 221 217 213 212 213 216 219 221 224 226 226 223 220 218 217 215 213 213 213 214 215 216 216 216 216 215 214 212 211 211 212 214 215 215 215 214 213 212 212 211 211
334 337 339 343 344 344 346 350 354 357 358 359 358 353 345 334 325 319 311 304 299 297 298 302 305 308 310 311 307 291 262 240 232 232 235 239 238 233 228 224 219 215 213 216 223 229 227 222 218 217 218 220 222 224 225 225 224 222 220 218 217 215 215 215 214 214 214 216 217 217 216 215 213 211 211 212 213 215 215 216 215 215 214 214 213 212
328 333 338 341 342 341 342 347 352 356 358 359 359 358 355 348 339 329 316 304 297 294 293 294 296 299 299 299 298 296 289 273 256 247 248 252 251 245 237 231 225 220 216 217 223 230 232 231 228 224 222 223 224 224 225 225 224 223 222 221 220 219 218 216 214 213 212 213 214 215 215 214 212 211 211 212 213 215 216 216 217 216 216 215 215 214
325 331 337 341 343 343 343 346 351 355 357 357 357 356 355 353 347 338 320 302 291 287 286 286 289 291 291 290 288 288 286 283 277 271 267 265 262 256 246 239 232 226 221 220 222 226 230 232 232 230 227 226 226 226 225 224 223 222 221 222 222 222 221 219 217 215 214 213 212 212 212 212 211 212 212 213 214 215 216 217 217 217 217 217 216 215
325 329 336 340 342 343 344 346 350 355 356 356 356 355 355 353 350 343 329 311 293 283 278 278 280 281 283 284 285 284 282 280 277 274 271 268 265 260 253 246 238 233 229 225 224 224 226 228 229 229 228 227 227 227 226 225 223 222 221 221 223 224 224 222 220 219 218 216 215 214 212 212 212 213 214 215 215 216 217 218 218 219 219 218 218 217
324 328 332 337 340 341 341 343 348 354 358 357 357 357 356 355 352 347 340 328 312 296 284 277 275 275 277 281 282 282 280 277 275 271 269 265 263 260 257 251 245 239 235 232 230 228 228 227 227 226 226 226 226 227 227 227 225 224 223 223 223 224 225 224 223 221 220 219 218 217 216 215 216 217 217 217 217 217 218 219 220 220 220 220 219 218
326 328 329 332 337 340 339 338 343 351 357 359 1 4 7 3 357 350 344 337 330 320 306 292 282 277 275 276 276 276 275 275 274 272 269 266 264 262 260 256 250 244 239 236 235 234 233 231 230 229 227 226 225 225 226 226 226 226 226 225 226 226 226 226 225 223 222 220 219 218 218 219 220 220 220 219 219 219 219 221 222 222 222 222 221 220
328 329 329 329 333 337 340 338 342 348 355 358 2 6 10 7 1 352 343 337 335 331 323 311 297 285 278 274 271 268 267 267 267 268 268 268 266 264 262 259 255 250 245 240 238 237 236 235 234 233 231 230 228 227 226 226 226 226 226 227 227 228 228 228 227 225 223 221 220 219 220 221 222 223 223 222 221 221 221 222 224 225 225 225 224 222
326 328 328 327 330 334 338 341 344 350 356 0 2 1 360 358 356 351 341 335 333 332 328 320 309 296 286 278 273 269 264 260 258 258 260 262 263 262 260 258 256 253 249 245 241 239 237 237 237 236 235 233 231 230 229 227 226 225 225 226 227 228 229 229 229 227 225 222 220 220 220 221 222 223 224 224 223 222 223 224 225 226 227 226 225 224
324 326 325 325 327 332 338 343 347 353 359 2 1 354 347 346 348 348 340 334 332 332 330 324 315 305 296 287 280 275 271 266 260 256 253 253 254 255 254 253 252 251 249 246 243 241 239 238 239 239 239 237 235 234 232 230 228 226 225 225 226 227 227 228 229 229 228 225 222 220 220 221 222 224 225 225 224 223 223 224 226 228 228 227 226 225
325 326 326 325 326 331 338 344 347 350 353 355 351 345 340 342 346 346 342 337 334 334 333 327 318 310 305 297 290 283 278 274 271 265 258 252 249 248 248 248 248 249 248 245 244 243 241 240 239 240 241 242 241 240 237 235 232 230 228 226 226 226 226 227 228 230 230 228 225 223 222 222 223 225 226 227 226 225 224 225 227 229 229 228 227 226
323 325 324 322 322 326 333 339 341 341 341 342 343 343 343 345 347 348 345 339 336 336 335 330 323 316 310 304 299 293 286 279 275 271 267 262 256 250 245 243 243 244 244 243 243 244 244 242 241 240 241 241 243 244 243 240 237 234 231 229 228 227 226 226 226 228 230 230 228 227 226 226 226 228 229 230 229 228 227 227 229 230 230 230 229 228
317 318 316 313 313 316 322 328 332 331 331 335 340 344 346 346 346 345 343 338 336 336 336 332 326 321 318 318 315 306 293 280 273 268 267 267 265 260 251 243 239 238 238 238 239 242 243 242 242 241 241 241 242 243 244 244 242 239 235 233 231 229 228 226 226 226 228 229 229 228 228 228 229 230 231 232 232 231 230 230 231 231 232 232 231 231
308 308 306 305 306 309 314 320 323 324 327 331 337 341 342 341 340 338 336 334 334 334 334 332 328 323 324 330 331 326 309 283 271 266 264 265 267 267 261 252 243 238 237 236 237 238 240 241 241 241 241 242 242 244 245 246 245 243 240 236 233 231 231 229 228 227 228 228 229 229 229 228 229 230 231 232 233 233 233 232 232 232 232 232 232 232
301 300 300 300 300 304 309 315 318 321 326 330 332 333 332 332 332 332 331 331 330 330 329 326 320 312 311 321 330 335 330 310 284 270 265 264 267 269 267 260 253 246 242 239 238 238 239 240 241 242 243 243 244 244 246 247 247 246 243 240 237 234 233 232 231 231 231 231 230 230 229 229 229 229 230 232 233 233 233 233 232 232 232 233 233 232
294 293 294 294 296 300 304 308 312 318 324 326 327 327 326 325 326 328 327 327 326 326 325 321 316 309 305 305 313 321 326 327 310 287 272 266 268 269 268 263 257 253 249 245 243 242 241 242 243 244 245 246 246 246 247 249 249 248 246 243 239 237 235 234 234 233 233 233 232 231 231 230 231 231 231 232 232 232 232 231 231 232 232 233 233 232
288 287 284 287 293 297 298 299 304 311 315 316 318 319 320 320 321 322 322 323 322 321 319 316 312 310 310 307 304 304 313 325 323 311 290 276 272 271 268 263 257 254 252 250 249 247 246 244 245 246 246 247 247 248 249 250 250 249 247 243 240 237 235 234 234 235 235 234 233 232 232 233 234 235 235 234 233 232 231 231 231 231 231 233 233 233
282 281 280 281 285 289 291 292 295 299 302 306 310 313 313 314 315 315 316 317 317 316 314 309 305 304 305 301 296 293 300 310 317 316 306 292 281 275 272 265 259 255 253 254 254 253 251 249 247 246 246 246 247 247 248 250 250 249 246 242 239 237 235 235 235 236 236 236 235 234 234 235 235 236 237 237 236 235 233 232 232 231 231 232 232 232
275 277 278 278 278 279 281 284 288 291 296 300 304 306 306 307 307 308 309 310 309 307 304 299 296 296 296 294 292 290 292 294 300 304 302 295 285 279 278 270 262 256 254 256 257 257 255 253 252 250 249 248 247 247 248 248 248 247 244 240 237 236 235 235 236 236 237 237 237 237 236 236 235 236 237 238 237 237 236 235 234 233 233 232 231 231
273 275 277 278 277 277 279 282 287 292 296 298 298 298 297 298 299 299 301 301 300 299 297 296 297 298 298 297 296 294 292 290 289 289 288 282 280 282 284 279 269 260 257 259 260 260 258 257 256 254 253 251 249 248 248 247 247 245 243 239 237 235 235 236 236 237 238 239 239 239 239 238 237 236 236 237 237 237 237 237 236 236 236 235 233 231
276 277 278 279 279 280 282 286 290 295 298 299 298 296 295 295 295 297 298 299 298 298 299 301 301 300 300 301 302 301 300 297 292 285 275 269 274 280 283 282 276 269 266 267 266 262 260 258 257 257 255 254 252 250 248 247 246 245 242 240 237 236 235 235 235 235 236 237 239 241 242 241 239 237 235 235 235 236 236 237 237 238 237 236 235 233
280 280 280 280 281 282 284 286 289 292 293 293 293 292 292 293 294 296 297 297 297 297 298 298 297 296 299 302 303 303 303 303 298 284 265 265 272 276 278 278 276 275 274 275 273 269 264 260 259 258 256 255 253 251 249 247 246 245 244 242 240 239 237 235 233 232 232 233 237 240 243 243 241 239 237 235 234 234 235 235 235 235 235 234 234 233
283 282 282 281 280 280 280 280 281 281 282 282 283 285 287 290 293 294 293 291 290 290 291 290 288 291 296 298 297 296 299 301 297 284 263 264 271 275 275 274 274 275 277 278 277 274 269 265 263 261 259 257 255 253 250 248 246 245 244 244 243 242 240 237 234 231 230 231 235 238 242 243 242 240 239 237 235 234 233 232 232 232 232 232 232 232
287 286 284 282 281 279 277 276 276 276 277 278 278 280 283 286 289 288 285 282 283 285 284 284 288 293 296 293 291 293 298 298 295 286 275 269 267 269 272 273 274 275 276 277 277 275 273 270 268 266 264 262 260 257 254 251 248 246 244 243 243 242 241 239 236 234 232 233 235 238 241 242 243 242 241 239 237 235 233 232 231 230 231 233 234 235
290 289 287 285 282 280 278 277 277 277 277 277 277 276 276 278 278 277 275 277 281 282 278 278 282 289 290 289 290 293 295 293 291 288 283 272 262 261 270 273 274 275 276 277 278 277 274 272 271 270 268 266 264 261 259 256 253 250 247 244 243 241 240 239 237 236 235 236 237 239 242 243 244 243 242 240 238 236 234 233 233 233 235 236 236 236
291 289 287 285 283 281 280 279 278 278 277 277 275 273 269 267 266 266 269 274 277 278 274 274 275 277 281 287 292 294 292 290 287 284 278 264 257 262 271 274 273 273 275 279 281 279 274 271 269 269 268 267 265 263 260 259 257 255 252 249 246 244 241 240 238 238 238 239 240 242 244 245 246 245 243 240 237 235 234 234 235 236 237 237 236 234
293 291 288 286 284 282 281 279 278 277 277 276 274 270 266 262 261 262 266 270 271 271 270 271 271 273 279 289 295 295 292 292 293 287 273 256 254 264 274 276 274 271 271 281 290 286 276 271 267 263 262 262 261 260 259 258 257 257 256 255 253 250 247 244 242 241 241 241 242 244 245 247 247 247 243 240 236 235 235 235 236 237 236 235 233 230
295 294 292 290 289 287 284 281 279 277 276 275 272 268 264 261 260 261 263 263 264 265 265 266 267 269 274 282 290 291 289 298 307 311 293 260 254 268 275 278 276 271 265 264 279 342 288 281 272 262 257 258 258 257 256 255 255 255 256 256 257 256 255 253 250 247 245 244 243 243 244 245 246 246 243 240 237 236 236 237 237 236 233 230 226 223
292 293 293 293 293 292 290 287 282 279 277 275 273 271 267 264 261 259 258 258 259 260 261 262 264 266 267 264 259 256 266 283 293 302 305 287 276 277 273 273 275 273 267 259 252 252 281 293 291 283 274 270 267 264 260 256 255 254 254 255 256 258 259 260 259 257 253 249 246 243 242 242 243 243 242 240 238 236 236 237 236 233 228 223 220 218
285 287 290 292 293 293 292 290 286 282 279 277 275 274 273 269 264 259 256 255 255 257 259 261 262 263 264 262 260 260 264 271 278 284 289 286 283 280 275 274 274 276 273 263 255 253 259 271 281 285 285 285 282 277 271 265 260 256 255 254 255 256 258 261 263 263 262 258 254 249 245 243 241 240 240 239 237 236 236 237 236 232 226 220 216 215
278 280 284 287 288 289 289 288 286 284 281 278 277 277 277 274 269 261 256 254 253 254 257 259 260 260 261 263 264 265 267 270 274 277 278 274 272 274 277 277 277 278 279 270 261 257 261 265 272 279 281 282 282 280 276 272 267 261 258 256 255 255 256 258 260 262 264 264 263 259 254 249 245 242 240 239 237 236 236 237 236 233 227 221 216 214
274 275 277 280 282 284 284 284 284 283 282 280 279 280 280 278 273 266 259 255 254 253 254 255 257 259 260 261 263 266 267 270 272 273 274 269 267 270 275 274 272 270 270 268 264 261 264 268 271 275 279 281 280 278 276 273 270 266 261 259 257 257 256 256 256 258 260 262 263 263 261 258 253 248 244 241 238 237 236 236 236 234 229 223 219 215
269 270 271 274 276 278 279 280 280 280 280 280 280 281 282 281 277 271 263 258 256 255 256 255 255 256 258 260 262 264 266 268 269 270 270 269 268 269 270 270 269 265 262 261 260 261 264 270 273 274 276 277 278 278 276 274 271 267 263 260 258 257 256 255 254 254 254 256 257 259 260 259 257 254 251 247 243 240 238 237 236 234 230 225 221 219
265 265 267 269 271 273 274 276 276 277 277 278 280 283 286 287 283 277 269 263 260 259 260 259 258 256 257 258 261 265 267 269 269 268 267 266 266 266 266 266 267 266 261 257 258 260 263 268 273 274 270 265 266 272 275 277 275 271 266 263 260 258 256 254 253 252 252 252 252 253 254 255 255 254 253 252 249 246 242 240 237 235 232 228 224 221
263 264 266 268 269 270 271 272 273 273 275 277 281 284 288 289 286 280 274 268 264 264 266 266 264 261 259 259 261 263 266 268 269 268 267 264 263 263 263 264 265 265 262 258 256 257 259 263 267 270 266 260 260 265 269 273 275 274 272 270 266 262 259 256 254 253 252 251 250 250 250 250 250 250 250 250 249 247 244 241 239 236 233 230 226 223
264 264 265 267 268 268 268 269 270 272 275 278 281 284 286 286 283 279 275 271 268 267 268 269 268 266 263 261 261 262 264 267 268 268 267 264 261 261 262 263 263 264 263 260 257 255 254 254 255 258 265 268 269 269 268 268 270 273 275 275 272 268 264 261 259 257 255 254 252 251 249 248 247 246 245 244 243 241 240 239 237 235 233 229 226 223
264 264 265 266 266 266 267 268 270 273 276 278 280 281 281 280 279 277 274 271 268 266 265 267 267 267 264 262 262 263 265 266 268 268 267 265 262 260 261 262 263 264 264 262 258 255 252 251 252 255 258 264 270 274 276 274 275 277 280 279 277 274 271 268 265 262 260 258 256 254 252 251 249 247 244 242 239 238 237 236 236 235 232 228 224 221
264 263 264 265 266 266 267 268 270 273 274 276 277 277 276 276 276 276 275 273 269 267 267 269 270 270 268 266 264 264 265 267 269 269 268 266 264 262 260 261 262 263 263 261 258 255 252 250 251 253 255 259 264 269 274 276 278 280 280 276 274 275 275 273 269 265 263 261 259 257 256 254 252 250 247 244 242 240 239 237 235 234 233 229 225 221
262 261 262 264 266 266 267 270 271 272 272 273 273 272 272 272 273 275 276 275 274 273 272 274 276 277 276 271 267 264 264 266 268 270 270 268 266 264 262 261 261 261 261 260 257 255 252 250 249 250 252 256 261 266 270 272 274 275 275 273 274 278 278 272 266 261 259 258 257 257 255 254 252 251 250 248 245 243 241 239 236 234 231 229 226 223
263 262 263 264 265 266 268 270 270 270 269 269 268 268 269 270 271 272 273 272 273 274 277 280 281 282 281 278 274 270 266 266 268 270 271 270 269 266 263 261 260 259 259 258 256 255 254 252 249 249 250 253 256 261 267 272 274 274 273 273 272 270 269 266 264 261 258 257 255 253 252 251 250 250 249 246 244 241 239 237 235 233 231 228 226 224
264 264 264 264 264 265 267 266 266 266 265 265 265 266 267 268 270 270 270 269 269 271 273 276 278 278 276 274 275 276 274 271 270 271 272 273 271 269 266 262 259 257 255 254 253 253 253 252 250 249 250 252 254 257 262 268 271 272 272 271 266 258 253 259 264 266 265 262 259 254 250 247 245 243 241 240 238 237 236 234 232 231 230 229 226 224
264 264 262 261 261 261 261 261 262 262 262 261 262 263 266 267 268 268 267 266 266 266 267 268 269 268 264 265 270 275 278 277 276 275 274 275 275 273 269 265 261 257 253 251 250 249 250 250 250 251 252 253 254 255 258 263 268 270 271 270 266 261 256 258 260 262 263 264 262 257 251 244 239 235 232 231 230 230 230 230 229 228 227 226 224 222
263 262 260 258 257 256 255 257 258 259 259 259 259 260 262 265 266 265 264 262 262 262 262 261 257 251 249 257 264 269 273 275 276 277 278 279 279 278 276 270 264 258 254 251 249 248 249 249 249 250 251 253 255 256 257 260 264 267 269 268 265 261 257 255 255 256 257 258 257 253 247 240 232 226 221 219 219 220 222 222 221 220 220 220 219 218
261 261 259 256 254 253 253 255 255 254 254 255 256 257 258 260 262 262 261 259 258 257 257 255 250 245 244 249 254 258 261 265 269 272 275 278 281 282 283 279 270 261 256 253 251 250 249 249 249 248 247 248 251 255 259 261 262 263 264 265 262 257 252 249 250 251 252 251 249 245 240 232 222 213 208 207 207 208 209 210 211 211 212 213 213 213
259 259 258 255 253 252 252 252 251 250 250 252 254 255 255 256 255 255 255 256 255 254 251 248 244 242 244 247 249 250 253 257 262 266 270 273 276 279 282 282 278 269 261 256 252 250 248 246 246 245 244 243 244 250 257 261 263 264 263 261 258 252 248 247 247 247 246 243 241 238 234 225 214 205 199 196 196 196 196 198 200 203 205 206 207 207
258 258 257 255 253 252 251 250 249 247 247 249 251 252 253 253 251 249 249 251 251 249 245 241 238 239 241 244 246 248 250 253 258 262 266 268 271 273 273 272 270 266 260 253 249 247 245 245 244 242 240 240 241 245 253 258 262 263 261 257 252 248 245 244 244 242 238 233 230 228 226 221 215 208 200 192 187 184 184 188 193 196 199 201 202 203
257 256 256 256 254 251 250 249 247 246 245 246 248 249 250 249 247 246 246 247 247 245 242 239 236 236 238 241 243 244 246 249 253 257 260 263 265 265 260 255 248 240 233 231 233 234 236 238 240 241 240 239 240 243 248 253 257 257 254 250 246 243 240 238 238 236 231 225 221 218 214 210 209 207 200 190 181 176 176 179 185 190 194 198 200 201
255 255 255 254 253 251 250 249 247 245 244 244 245 246 246 245 243 242 242 242 242 242 241 239 236 235 236 239 241 242 243 245 247 251 255 258 259 254 246 237 226 215 206 204 209 213 215 218 230 239 240 240 239 239 241 244 245 245 242 240 239 237 233 231 231 229 225 219 215 210 204 200 198 196 192 185 177 171 169 170 173 180 188 193 196 198